Weather History for LEVD - November, 2012

Change the Weather History Date:

Saturday, November 10, 2012

  Actual Average Record
Temperature  
Mean Temperature 46 °F -  
Max Temperature 50 °F - - ()
Min Temperature 41 °F - - ()
Degree Days  
Heating Degree Days 20    
Moisture  
Dew Point 45 °F    
Average Humidity 98    
Maximum Humidity 100    
Minimum Humidity 87    
Precipitation  
Precipitation 0.00 in - - ()
Sea Level Pressure  
Sea Level Pressure 29.81 in    
Wind  
Wind Speed 10 mph ()    
Max Wind Speed 17 mph    
Max Gust Speed -    
Visibility 5.5 miles    
Events Fog , Rain    
T = Trace of Precipitation, MM = Missing Value Source: Averaged Metar Reports

Daily Weather History Graph

Daily Weather History Graph

Search for Another Location

Airport or City:

Trip Planner

Search our weather history database for the weather conditions in past years. The results will help you decide how hot, cold, wet, or windy it might be!

Date:

Astronomy

Nov. 10, 2012 Rise Set
Actual Time 8:02 AM CET 6:03 PM CET
Civil Twilight 7:33 AM CET 6:32 PM CET
Nautical Twilight 6:59 AM CET 7:06 PM CET
Astronomical Twilight 6:27 AM CET 7:38 PM CET
Moon 3:48 AM CET (11/10) 3:44 PM CET (11/10)
Length of Visible Light 10h 59m
Length of Day
10h 00m
Waning Crescent, 16% of the Moon is Illuminated
Nov 10
Waning Crescent
Nov 13
New
Nov 20
First Quarter
Nov 28
Full
Dec 6
Last Quarter

Hourly Weather History & Observations

Time (CET) Temp. Windchill Dew Point Humidity Pressure Visibility Wind Dir Wind Speed Gust Speed Precip Events Conditions
6:00 AM 42.8 °F 39.3 °F 42.8 °F 100% 29.83 in 5.6 mi WSW 5.8 mph - N/A   Mostly Cloudy
6:30 AM 42.8 °F 38.6 °F 42.8 °F 100% 29.83 in 4.3 mi SW 6.9 mph - N/A   Mostly Cloudy
7:00 AM 42.8 °F 37.0 °F 42.8 °F 100% 29.83 in 0.9 mi SW 10.4 mph - N/A Fog Patches of Fog
7:30 AM 42.8 °F 38.0 °F 42.8 °F 100% 29.83 in 0.9 mi SW 8.1 mph - N/A Fog Patches of Fog
8:00 AM 42.8 °F 38.0 °F 42.8 °F 100% 29.83 in 2.5 mi SW 8.1 mph - N/A Fog Patches of Fog
8:30 AM 42.8 °F 38.0 °F 42.8 °F 100% 29.83 in 4.3 mi SW 8.1 mph - N/A   Mostly Cloudy
9:00 AM 44.6 °F 39.2 °F 44.6 °F 100% 29.83 in 4.3 mi WSW 10.4 mph - N/A   Mostly Cloudy
9:30 AM 44.6 °F 39.2 °F 44.6 °F 100% 29.83 in 5.6 mi SW 10.4 mph - N/A   Mostly Cloudy
10:00 AM 46.4 °F 40.7 °F 46.4 °F 100% 29.83 in 6.2 mi SW 12.7 mph - N/A   Mostly Cloudy
10:29 AM 46.4 °F 39.8 °F 46.4 °F 100% 29.83 in 6.2 mi WSW 16.1 mph - N/A Rain Rain
10:30 AM 46.4 °F 39.8 °F 46.4 °F 100% 29.83 in 6.2 mi WSW 16.1 mph - N/A   Scattered Clouds
11:00 AM 46.4 °F 40.1 °F 46.4 °F 100% 29.83 in 5.0 mi WSW 15.0 mph - N/A Rain Rain
11:30 AM 46.4 °F 40.4 °F 46.4 °F 100% 29.83 in 3.7 mi WSW 13.8 mph - N/A Rain Rain
12:00 PM 46.4 °F 40.7 °F 46.4 °F 100% 29.83 in 6.2 mi WSW 12.7 mph - N/A   Light Drizzle
12:30 PM 46.4 °F 40.4 °F 46.4 °F 100% 29.83 in 6.2 mi WSW 13.8 mph - N/A   Overcast
1:00 PM 46.4 °F 40.1 °F 46.4 °F 100% 29.80 in 5.0 mi WSW 15.0 mph - N/A   Light Drizzle
1:30 PM 46.4 °F 40.7 °F 46.4 °F 100% 29.80 in 6.2 mi WSW 12.7 mph - N/A Rain Heavy Rain
2:00 PM 48.2 °F - 48.2 °F 100% 29.80 in 6.2 mi WSW 16.1 mph - N/A   Mostly Cloudy
2:30 PM 48.2 °F - 48.2 °F 100% 29.77 in 6.2 mi West 15.0 mph - N/A   Mostly Cloudy
3:00 PM 50.0 °F - 50.0 °F 100% 29.77 in 6.2 mi West 16.1 mph - N/A   Mostly Cloudy
3:30 PM 48.2 °F - 48.2 °F 100% 29.77 in 6.2 mi WSW 15.0 mph - N/A   Mostly Cloudy
4:00 PM 48.2 °F - 48.2 °F 100% 29.77 in 6.2 mi West 17.3 mph - N/A   Mostly Cloudy
4:30 PM 50.0 °F - 48.2 °F 94% 29.77 in 6.2 mi West 13.8 mph - N/A   Mostly Cloudy
5:00 PM 50.0 °F - 48.2 °F 94% 29.77 in 6.2 mi West 15.0 mph - N/A   Mostly Cloudy
5:30 PM 48.2 °F - 44.6 °F 87% 29.77 in 6.2 mi West 15.0 mph - N/A   Scattered Clouds
6:00 PM 46.4 °F 40.1 °F 44.6 °F 93% 29.77 in 6.2 mi NW 15.0 mph - N/A   Scattered Clouds
6:30 PM 44.6 °F 40.2 °F 42.8 °F 93% 29.77 in 6.2 mi NW 8.1 mph - N/A   Scattered Clouds
7:00 PM 42.8 °F 40.1 °F 42.8 °F 100% 29.80 in 6.2 mi West 4.6 mph - N/A   Scattered Clouds
7:30 PM 42.8 °F 39.3 °F 42.8 °F 100% 29.80 in 6.2 mi WSW 5.8 mph - N/A   Mostly Cloudy
8:00 PM 42.8 °F 40.1 °F 41.0 °F 93% 29.80 in 6.2 mi West 4.6 mph - N/A   Mostly Cloudy
8:30 PM 42.8 °F 41.1 °F 42.8 °F 100% 29.80 in 6.2 mi West 3.5 mph - N/A   Mostly Cloudy
9:00 PM 41.0 °F 39.0 °F 41.0 °F 100% 29.80 in 6.2 mi WNW 3.5 mph - N/A   Scattered Clouds
9:30 PM 41.0 °F 35.8 °F 41.0 °F 100% 29.80 in 6.2 mi WNW 8.1 mph - N/A   Scattered Clouds
10:00 PM 41.0 °F 36.4 °F 39.2 °F 93% 29.80 in 6.2 mi WNW 6.9 mph - N/A   Scattered Clouds
10:30 PM 41.0 °F 35.8 °F 39.2 °F 93% 29.83 in 6.2 mi West 8.1 mph - N/A   Partly Cloudy